Regional Weather Roundup
Issued by NWS

Home | Current Version | Previous Version | Text Only | Print | Product List | Glossary On
Versions: 1 2 3 4 5 6 7 8 9 10 11 12 13 14 15 16 17 18 19 20 21 22 23 24 25 26 27 28 29 30 31 32 33 34 35 36 37 38 39 40 41 42 43 44 45 46 47 48 49 50
979
ASUS43 KLSX 210107
RWRMO

WEATHER SUMMARY FOR MISSOURI
NATIONAL WEATHER SERVICE SPRINGFIELD MO
800 PM CDT WED SEP 20 2017

NOTE: "FAIR" INDICATES FEW OR NO CLOUDS BELOW 12,000 FEET WITH NO
       SIGNIFICANT WEATHER AND/OR OBSTRUCTIONS TO VISIBILITY.
       CURRENT SKY AND/OR WEATHER CONDITIONS ARE NOT AVAILABLE FOR
       CHILLICOTHE AND FARMINGTON.

MOZ001>031-035>038-043-044-053-054-210200-
...NORTHERN AND WESTERN MISSOURI...

CITY           SKY/WX    TMP DP  RH WIND       PRES   REMARKS
KANSAS CTY INT MOCLDY    80  74  81 SE7       29.83R
KANSAS C DTWN  MOCLDY    87  75  67 E5        29.81R HX  96
LEE`S SUMMIT   CLOUDY    85  75  72 S7        29.84R HX  93
ST JOSEPH      MOCLDY    80  73  79 SE3       29.81S
CHILLICOTHE      N/A     80  78  94 CALM      29.84R
KIRKSVILLE     MOCLDY    83  72  69 S5        29.84S

$$
MOZ066>068-077>081-088>096-101>105-210200-
...SOUTHWEST MISSOURI...

CITY           SKY/WX    TMP DP  RH WIND       PRES   REMARKS
SPRINGFIELD    CLEAR     82  69  64 S8        29.88R
JOPLIN         CLEAR     84  72  67 S9        29.84S
BRANSON        PTCLDY    82  68  61 S9        29.92S

$$
MOZ032>034-039>042-045>050-055>058-069>072-210200-
...CENTRAL MISSOURI...

CITY           SKY/WX    TMP DP  RH WIND       PRES   REMARKS
COLUMBIA       CLEAR     81  71  71 S8        29.86S
JEFFERSON CITY CLEAR     84  69  60 SE7       29.84S
ROLLA          CLEAR     80  68  66 SE7       29.91R
SEDALIA        CLEAR     81  74  79 SE7       29.85S
WHITEMAN AFB   PTCLDY    82  80  92 S3        29.83R HX  93
WARRENSBURG    CLEAR     82  72  69 S3        29.83S
OSAGE BEACH    CLEAR     82  72  71 SE5       29.88R

$$
MOZ051-052-059>065-210200-
...EAST CENTRAL MISSOURI...

CITY           SKY/WX    TMP DP  RH WIND       PRES   REMARKS
ST LOUIS INTL  CLEAR     89  69  51 S10       29.88S HX  93
SPIRIT OF STL  CLEAR     87  69  54 S5        29.86S HX  91
ST CHARLES     CLEAR     84  68  58 S7        29.86R

$$
MOZ072>076-082>087-097>100-106>115-210200-
...SOUTH CENTRAL AND SOUTHEAST MISSOURI...

CITY           SKY/WX    TMP DP  RH WIND       PRES   REMARKS
CAPE GIRARDEAU CLEAR     81  71  71 S8        29.93R
FARMINGTON     CLEAR     81  70  69 S6        29.95R
POPLAR BLUFF   CLEAR     81  70  69 S6        29.92R
WEST PLAINS    PTCLDY    83  71  67 S9        29.95R

$$



USA.gov is the U.S. government's official web portal to all federal, state and local government web resources and services.